Regional Weather Roundup
Issued by NWS

Home | Current Version | Previous Version | Text Only | Print | Product List | Glossary On
Versions: 1 2 3 4 5 6 7 8 9 10 11 12 13 14 15 16 17 18 19 20 21 22 23 24 25 26 27 28 29 30 31 32 33 34 35 36 37 38 39 40 41 42 43 44 45 46 47 48 49 50
360
ASUS44 KFWD 251303
RWRTX
NORTH TEXAS HOURLY WEATHER ROUNDUP
NATIONAL WEATHER SERVICE FORT WORTH TX
800 AM CDT WED APR 25 2018

NOTE: "FAIR" INDICATES FEW OR NO CLOUDS BELOW 12,000 FEET WITH NO
SIGNIFICANT WEATHER AND/OR OBSTRUCTIONS TO VISIBILITY.

TXZ118-119-251400-
DALLAS/FORT WORTH METROPLEX

CITY           SKY/WX    TMP DP  RH WIND       PRES   REMARKS
DFW AIRPORT    CLOUDY    64  54  69 NW15      30.10R
DALLAS LOVE    CLOUDY    66  55  67 NW16G22   30.10R
FTW MEACHAM    CLOUDY    63  54  72 NW21G30   30.11R
DAL-EXECUTIVE  CLOUDY    67  55  65 NW7       30.08R
FTW-ALLIANCE   PTSUNNY   60  51  72 N17G29    30.11R
FTW-SPINKS     CLOUDY    64  55  72 N13       30.10R
ARLINGTON      CLOUDY    65  56  72 NW12      30.09R
GRAND PRAIRIE  MOSUNNY   66  54  63 NW6       30.11R
ADDISON        CLOUDY    63  52  67 NW13G22   30.10R
MESQUITE       CLOUDY    64  55  72 CALM      30.07R
LANCASTER      CLOUDY    63  58  82 CALM      30.09R
$$

TXZ091>094-102>105-117-120-121-131>134-251400-
NORTH CENTRAL TEXAS

CITY           SKY/WX    TMP DP  RH WIND       PRES   REMARKS
SHRMAN/DENISON PTSUNNY   55  49  79 NW18G24   30.16R
GAINESVILLE    CLOUDY    54  46  75 N13       30.18R
BOWIE          PTSUNNY   52  45  76 N17G23    30.17R
BRIDGEPORT     LGT RAIN  54  46  72 N10G17    30.18F
DECATUR        FAIR      53  47  80 N9        30.13F
DENTON         CLOUDY    57  50  77 NW20G28   30.15R
MCKINNEY       CLOUDY    61  53  75 N9        30.09R
BONHAM         FAIR      57  50  77 N13G18    30.10R
ROCKWALL       HAZE      63  57  80 MISG      30.07R VSB<1/4
TERRELL        CLOUDY    63  56  78 SW3       30.07R
WAXAHACHIE     PTSUNNY   63  56  77 NW5       30.10R
CLEBURNE       CLOUDY    64  54  68 N15       30.10R
$$

TXZ083>090-098>101-113>116-127>130-139>142-154-155-251400-
WESTERN NORTH TEXAS

CITY           SKY/WX    TMP DP  RH WIND       PRES   REMARKS
WICHITA FALLS  CLOUDY    49  45  86 N24G31    30.24R
WF-KICKAPOO    CLOUDY    51  46  83 N16       30.27R
VERNON         CLOUDY    47  44  88 N23G30    30.27R WCI  40
ABILENE        CLOUDY    50  43  77 N23G31    30.22R
ABILENE-DYESS  CLOUDY    51  40  66 N22       30.23R
GRAHAM           N/A     51  46  81 N17G28    30.19R
BRECKENRIDGE   CLOUDY    53  44  70 N16G23    30.20R
CISCO          CLOUDY    52  46  82 NW16      30.19R
EASTLAND       CLOUDY    52  45  78 NW14G24   30.19R
RANGER         FAIR      52  47  83 N12G25    30.17R
MINERAL WELLS  FAIR      55  47  74 N15G24    30.10S
STEPHENVILLE   PTSUNNY   61  53  76 N16G25    30.13R
COMANCHE       CLOUDY    57  52  84 NW17G33   30.16R
BROWNWOOD      FAIR      55  46  71 N17G29    30.16R
COLEMAN        FAIR      53  46  78 N18       30.17R
BRADY          FAIR      66  52  59 NW3       30.13R
$$

TXZ143>147-156>162-174-175-251400-
CENTRAL TEXAS

CITY           SKY/WX    TMP DP  RH WIND       PRES   REMARKS
WACO           FAIR      65  59  81 CALM      30.06R
WACO-TSTC      SUNNY     64  57  77 CALM      30.07R
WACO-MCGREGOR  FAIR      63  58  83 SW3       30.07R
HILLSBORO      FAIR      65  59  79 CALM      30.06R
CORSICANA      FAIR      64  58  80 CALM      30.08R
MEXIA          FAIR      63  58  82 CALM      30.06R
HEARNE         FAIR      61  61 100 CALM      30.09R
CAMERON        FAIR      61  58  91 CALM      30.09R
TEMPLE         FAIR      62  59  90 CALM      30.07S
KILLEEN        NOT AVBL
KILLEEN-SKYLRK FAIR      64  59  83 SE3       30.07S
FORT HOOD      FAIR      63  59  87 CALM      30.03F
GATESVILLE     FAIR      63  57  82 CALM      30.09R
HAMILTON       FAIR      63  58  84 CALM      30.08F
LAMPASAS       FAIR      63  49  60 CALM      30.07S
$$

TXZ095>097-106>112-122>126-135>138-148>153-164>167-251400-
EAST TEXAS

CITY           SKY/WX    TMP DP  RH WIND       PRES   REMARKS
PARIS          FAIR      58  51  78 N9        30.07S
SULPHUR SPRNGS PTSUNNY   63  53  69 CALM      30.07F
MOUNT PLEASANT FAIR      55  54  97 CALM      30.07F
GILMER         PTSUNNY   57  53  88 CALM      30.06R
MINEOLA        CLOUDY    59  55  88 S3        30.05F
TYLER          PTSUNNY   62  57  83 CALM      30.05S
LONGVIEW       PTSUNNY   60  56  86 CALM      30.04S
MARSHALL       FAIR      53  51  94 CALM      30.08R
ATHENS         PTSUNNY   63  55  77 CALM      30.05R
PALESTINE      FAIR      61  56  85 CALM      30.07R
JACKSONVILLE   FAIR      64  53  67 CALM      30.08S
HENDERSON      PTSUNNY   58  55  90 CALM      30.07S
CENTER         PTSUNNY   56  54  93 MISG      30.07R
NACOGDOCHES      N/A     55  53  93 CALM      30.08R
LUFKIN         FAIR      61  57  87 CALM      30.07R
$$

SUPPLEMENTAL OBSERVATIONS (NWS FORT WORTH AREA)

CITY           SKY/WX    TMP DP  RH WIND       PRES   REMARKS
$$

SUPPLEMENTAL OBSERVATIONS (NWS NORMAN AREA)

CITY           SKY/WX    TMP DP  RH WIND       PRES   REMARKS
GOODLETT         N/A     44  40  87 NW16      30.30R WCI  36
ODELL            N/A     45  44  95 N13       30.29R WCI  39
CROWELL          N/A     46  42  86 N17       30.30R WCI  39
KNOX CITY        N/A     48  40  72 N20G26    30.29R
SEYMOUR          N/A     48  43  85 N18G26    30.27R
$$

SUPPLEMENTAL OBSERVATIONS (NWS SAN ANGELO AREA)

CITY           SKY/WX    TMP DP  RH WIND       PRES   REMARKS
WEINERT          N/A     48  42  77 N23       30.27S
HASKELL          N/A     48  41  77 N25G31    30.25R
THROCKMORTON     N/A     50  45  83 N14G21    30.24S
STAMFORD         N/A     50  43  75 N25       30.25R
CLYDE            N/A     49  44  82 N12       30.23R
$$

SUPPLEMENTAL OBSERVATIONS (NWS SHREVEPORT AREA)

CITY           SKY/WX    TMP DP  RH WIND       PRES   REMARKS
$$

SUPPLEMENTAL OBSERVATIONS ARE A COLLECTION OF AUTOMATED INSTRUMENTS
THAT ARE MAINTAINED BY A VARIETY OF FEDERAL AND STATE AGENCIES.
CERTAIN ELEMENTS...SUCH AS HUMIDITY VALUES AND SUSTAINED WIND
SPEEDS...MAY BE APPROXIMATED.





USA.gov is the U.S. government's official web portal to all federal, state and local government web resources and services.